• In Deutschland
  • Länderverzeichnis
  • Für 7 Tage
  • Wassertemperatur
  • Satellitenkarten
  • Wetterkarte
  • Widgets
  • user-avatar
    Anmelden

    Stündliche Wetter Shkoder

    Heute, 26 September, Dienstag

    Zeit Temperatur Niederschläge Wind Luftdruck Luftfeuchtigkeit
    00:00 +14°C° 0,2 mm 3 m/S 741 mmHg 86%
    01:00 +14°C° 0 mm 3 m/S 741 mmHg 86%
    02:00 +14°C° 0,2 mm 3 m/S 741 mmHg 86%
    03:00 +14°C° 0,2 mm 3 m/S 741 mmHg 87%
    04:00 +14°C° 0,2 mm 3 m/S 741 mmHg 87%
    05:00 +14°C° 0,1 mm 3 m/S 741 mmHg 85%
    06:00 +16°C° 0,1 mm 3 m/S 741 mmHg 83%
    07:00 +17°C° 0 mm 3 m/S 741 mmHg 80%
    08:00 +18°C° 0 mm 3 m/S 741 mmHg 73%
    09:00 +20°C° 0 mm 3 m/S 741 mmHg 67%
    10:00 +21°C° 0 mm 2 m/S 741 mmHg 60%
    11:00 +23°C° 0,1 mm 2 m/S 741 mmHg 58%
    12:00 +24°C° 0,1 mm 2 m/S 741 mmHg 56%
    13:00 +24°C° 0,1 mm 2 m/S 741 mmHg 54%
    14:00 +24°C° 0,2 mm 3 m/S 741 mmHg 56%
    15:00 +22°C° 0,2 mm 3 m/S 741 mmHg 58%
    16:00 +22°C° 0,2 mm 3 m/S 741 mmHg 61%
    17:00 +20°C° 0,1 mm 3 m/S 741 mmHg 67%
    18:00 +19°C° 0,1 mm 3 m/S 742 mmHg 73%
    19:00 +17°C° 0,1 mm 2 m/S 742 mmHg 79%
    20:00 +17°C° 0,1 mm 2 m/S 742 mmHg 81%
    21:00 +16°C° 0,1 mm 2 m/S 742 mmHg 83%
    22:00 +16°C° 0,1 mm 2 m/S 742 mmHg 84%
    23:00 +16°C° 0,1 mm 2 m/S 742 mmHg 84%

    Morgen, 27 September, Mittwoch

    Zeit Temperatur Niederschläge Wind Luftdruck Luftfeuchtigkeit
    00:00 +15°C° 0,1 mm 2 m/S 742 mmHg 84%
    01:00 +15°C° 0,1 mm 2 m/S 742 mmHg 84%
    02:00 +15°C° 0,1 mm 2 m/S 742 mmHg 85%
    03:00 +15°C° 0,1 mm 2 m/S 742 mmHg 85%
    04:00 +15°C° 0,1 mm 2 m/S 742 mmHg 86%
    05:00 +15°C° 0,1 mm 2 m/S 742 mmHg 84%
    06:00 +16°C° 0,1 mm 2 m/S 743 mmHg 81%
    07:00 +16°C° 0,1 mm 2 m/S 743 mmHg 79%
    08:00 +18°C° 0,1 mm 2 m/S 743 mmHg 73%
    09:00 +19°C° 0,1 mm 2 m/S 743 mmHg 67%
    10:00 +21°C° 0,1 mm 2 m/S 744 mmHg 61%
    11:00 +21°C° 0,1 mm 2 m/S 743 mmHg 59%
    12:00 +23°C° 0,1 mm 2 m/S 743 mmHg 58%
    13:00 +24°C° 0,1 mm 2 m/S 743 mmHg 56%
    14:00 +23°C° 0,2 mm 2 m/S 743 mmHg 58%
    15:00 +23°C° 0,2 mm 2 m/S 743 mmHg 60%
    16:00 +21°C° 0,2 mm 2 m/S 743 mmHg 62%
    17:00 +20°C° 0,1 mm 2 m/S 744 mmHg 68%
    18:00 +18°C° 0,1 mm 2 m/S 744 mmHg 74%
    19:00 +17°C° 0,1 mm 2 m/S 744 mmHg 80%
    20:00 +17°C° 0 mm 2 m/S 744 mmHg 81%
    21:00 +16°C° 0 mm 2 m/S 744 mmHg 83%
    22:00 +16°C° 0 mm 2 m/S 745 mmHg 85%
    23:00 +16°C° 0 mm 2 m/S 745 mmHg 85%

    übermorgen, 28 September, Donnerstag

    Zeit Temperatur Niederschläge Wind Luftdruck Luftfeuchtigkeit
    00:00 +15°C° 0 mm 2 m/S 745 mmHg 85%
    01:00 +15°C° 0 mm 2 m/S 744 mmHg 86%
    02:00 +15°C° 0 mm 2 m/S 744 mmHg 86%
    03:00 +15°C° 0 mm 2 m/S 744 mmHg 86%
    04:00 +15°C° 0 mm 2 m/S 744 mmHg 86%
    05:00 +15°C° 0,1 mm 2 m/S 744 mmHg 84%
    06:00 +16°C° 0,1 mm 3 m/S 745 mmHg 82%
    07:00 +16°C° 0,1 mm 3 m/S 745 mmHg 80%
    08:00 +18°C° 0,1 mm 2 m/S 745 mmHg 73%
    09:00 +20°C° 0,1 mm 2 m/S 745 mmHg 66%
    10:00 +21°C° 0,1 mm 2 m/S 745 mmHg 59%
    11:00 +23°C° 0,1 mm 2 m/S 745 mmHg 57%
    12:00 +23°C° 0,1 mm 2 m/S 745 mmHg 55%
    13:00 +24°C° 0,1 mm 2 m/S 745 mmHg 54%
    14:00 +22°C° 0,2 mm 3 m/S 744 mmHg 56%
    15:00 +22°C° 0,2 mm 3 m/S 744 mmHg 59%
    16:00 +21°C° 0,2 mm 3 m/S 744 mmHg 61%
    17:00 +20°C° 0,1 mm 3 m/S 744 mmHg 66%
    18:00 +18°C° 0,1 mm 3 m/S 745 mmHg 71%
    19:00 +17°C° 0,1 mm 3 m/S 745 mmHg 76%
    20:00 +17°C° 0,1 mm 3 m/S 745 mmHg 77%
    21:00 +16°C° 0,1 mm 3 m/S 745 mmHg 79%
    22:00 +16°C° 0,1 mm 3 m/S 745 mmHg 80%
    23:00 +14°C° 0,1 mm 3 m/S 745 mmHg 80%

    29 September, Freitag

    Zeit Temperatur Niederschläge Wind Luftdruck Luftfeuchtigkeit
    00:00 +14°C° 0,1 mm 3 m/S 745 mmHg 80%
    01:00 +14°C° 0,1 mm 3 m/S 745 mmHg 80%
    02:00 +14°C° 0,1 mm 3 m/S 744 mmHg 80%
    03:00 +13°C° 0,1 mm 3 m/S 744 mmHg 80%
    04:00 +13°C° 0,1 mm 3 m/S 744 mmHg 79%
    05:00 +13°C° 0 mm 3 m/S 744 mmHg 78%
    06:00 +14°C° 0 mm 3 m/S 744 mmHg 76%
    07:00 +14°C° 0 mm 3 m/S 744 mmHg 75%
    08:00 +17°C° 0 mm 3 m/S 744 mmHg 68%
    09:00 +18°C° 0 mm 3 m/S 744 mmHg 62%
    10:00 +20°C° 0 mm 3 m/S 744 mmHg 55%
    11:00 +21°C° 0 mm 3 m/S 744 mmHg 53%
    12:00 +21°C° 0 mm 2 m/S 743 mmHg 50%
    13:00 +23°C° 0 mm 2 m/S 743 mmHg 48%
    14:00 +23°C° 0 mm 2 m/S 743 mmHg 49%
    15:00 +21°C° 0 mm 2 m/S 743 mmHg 50%
    16:00 +21°C° 0 mm 2 m/S 742 mmHg 51%
    17:00 +19°C° 0 mm 2 m/S 743 mmHg 55%
    18:00 +17°C° 0 mm 2 m/S 743 mmHg 60%
    19:00 +14°C° 0 mm 3 m/S 743 mmHg 64%
    20:00 +14°C° 0 mm 3 m/S 743 mmHg 65%
    21:00 +13°C° 0 mm 3 m/S 743 mmHg 67%
    22:00 +12°C° 0 mm 3 m/S 744 mmHg 68%
    23:00 +12°C° 0 mm 3 m/S 743 mmHg 69%

    30 September, Samstag

    Zeit Temperatur Niederschläge Wind Luftdruck Luftfeuchtigkeit
    00:00 +12°C° 0 mm 3 m/S 743 mmHg 71%
    01:00 +11°C° 0 mm 3 m/S 743 mmHg 73%
    02:00 +11°C° 0 mm 3 m/S 743 mmHg 73%
    03:00 +11°C° 0 mm 3 m/S 743 mmHg 74%
    04:00 +10°C° 0 mm 3 m/S 743 mmHg 75%
    05:00 +11°C° 0 mm 3 m/S 743 mmHg 73%
    06:00 +12°C° 0 mm 3 m/S 743 mmHg 70%
    07:00 +12°C° 0 mm 3 m/S 743 mmHg 68%
    08:00 +14°C° 0 mm 3 m/S 743 mmHg 59%
    09:00 +17°C° 0 mm 3 m/S 742 mmHg 51%
    10:00 +20°C° 0 mm 2 m/S 742 mmHg 43%
    11:00 +20°C° 0 mm 2 m/S 742 mmHg 40%
    12:00 +21°C° 0 mm 2 m/S 742 mmHg 38%
    13:00 +23°C° 0 mm 2 m/S 741 mmHg 35%
    14:00 +21°C° 0 mm 2 m/S 741 mmHg 37%
    15:00 +21°C° 0 mm 2 m/S 741 mmHg 39%
    16:00 +20°C° 0 mm 2 m/S 741 mmHg 41%
    17:00 +18°C° 0 mm 2 m/S 741 mmHg 47%
    18:00 +16°C° 0 mm 2 m/S 741 mmHg 53%
    19:00 +14°C° 0 mm 2 m/S 742 mmHg 59%
    20:00 +14°C° 0 mm 2 m/S 742 mmHg 60%
    21:00 +13°C° 0 mm 2 m/S 742 mmHg 60%
    22:00 +13°C° 0 mm 2 m/S 742 mmHg 60%
    23:00 +13°C° 0 mm 2 m/S 742 mmHg 61%

    1 Oktober, Sonntag

    Zeit Temperatur Niederschläge Wind Luftdruck Luftfeuchtigkeit
    00:00 +12°C° 0 mm 2 m/S 742 mmHg 62%
    01:00 +12°C° 0 mm 2 m/S 742 mmHg 62%
    02:00 +12°C° 0 mm 2 m/S 742 mmHg 63%
    03:00 +12°C° 0 mm 2 m/S 742 mmHg 63%
    04:00 +12°C° 0 mm 2 m/S 742 mmHg 64%
    05:00 +12°C° 0 mm 2 m/S 742 mmHg 62%
    06:00 +13°C° 0 mm 2 m/S 742 mmHg 61%
    07:00 +14°C° 0 mm 2 m/S 742 mmHg 59%
    08:00 +16°C° 0 mm 2 m/S 742 mmHg 54%
    09:00 +18°C° 0 mm 2 m/S 742 mmHg 48%
    10:00 +21°C° 0 mm 1 m/S 742 mmHg 43%
    11:00 +21°C° 0 mm 2 m/S 742 mmHg 42%
    12:00 +21°C° 0 mm 2 m/S 741 mmHg 41%
    13:00 +23°C° 0 mm 2 m/S 741 mmHg 40%
    14:00 +21°C° 0 mm 2 m/S 741 mmHg 43%
    15:00 +21°C° 0 mm 2 m/S 741 mmHg 46%
    16:00 +20°C° 0 mm 2 m/S 741 mmHg 49%
    17:00 +19°C° 0 mm 1 m/S 741 mmHg 54%
    18:00 +18°C° 0 mm 1 m/S 742 mmHg 60%
    19:00 +15°C° 0 mm 1 m/S 742 mmHg 66%
    20:00 +14°C° 0 mm 1 m/S 742 mmHg 67%
    21:00 +14°C° 0 mm 1 m/S 742 mmHg 68%
    22:00 +14°C° 0 mm 1 m/S 742 mmHg 69%
    23:00 +14°C° 0 mm 1 m/S 743 mmHg 69%
    Mehr zeigen